When you browse on this site, cookies collect data to enhance your experience and personalize the content and advertising you see.
Visit our Privacy Policy to learn more. By continuing to use the site, you agree to this use of cookies and data.
  • In Netherlands
  • List of Countries
  • For 7 days
  • Water Temperature
  • Satellite Maps
  • Weather Map
  • Weather Widgets
  • user-avatar
    Login

    Hourly Weather Townsville

    Today, 20 November, Tuesday

    Time Temperature Precipitation Wind Pressure Humidity
    00:00 +25°C° 0.1 mm 4 mps 753 mmHg 85%
    01:00 +25°C° 0.1 mm 4 mps 753 mmHg 86%
    02:00 +25°C° 0.1 mm 4 mps 753 mmHg 87%
    03:00 +25°C° 0.1 mm 3 mps 753 mmHg 88%
    04:00 +25°C° 0 mm 3 mps 753 mmHg 90%
    05:00 +26°C° 0.2 mm 3 mps 753 mmHg 87%
    06:00 +26°C° 0.2 mm 3 mps 753 mmHg 83%
    07:00 +27°C° 0.2 mm 3 mps 753 mmHg 80%
    08:00 +28°C° 0.1 mm 4 mps 753 mmHg 73%
    09:00 +30°C° 0.1 mm 4 mps 753 mmHg 66%
    10:00 +32°C° 0 mm 4 mps 753 mmHg 58%
    11:00 +33°C° 0 mm 5 mps 753 mmHg 55%
    12:00 +34°C° 0 mm 5 mps 752 mmHg 53%
    13:00 +34°C° 0 mm 5 mps 752 mmHg 50%
    14:00 +34°C° 0 mm 5 mps 752 mmHg 52%
    15:00 +33°C° 0 mm 5 mps 751 mmHg 54%
    16:00 +32°C° 0 mm 5 mps 751 mmHg 57%
    17:00 +30°C° 0 mm 4 mps 751 mmHg 64%
    18:00 +28°C° 0 mm 4 mps 751 mmHg 71%
    19:00 +27°C° 0 mm 4 mps 752 mmHg 78%
    20:00 +27°C° 0 mm 4 mps 752 mmHg 80%
    21:00 +26°C° 0 mm 4 mps 752 mmHg 82%
    22:00 +26°C° 0 mm 4 mps 753 mmHg 84%
    23:00 +26°C° 0 mm 4 mps 752 mmHg 84%

    Tomorrow, 21 November, Wednesday

    Time Temperature Precipitation Wind Pressure Humidity
    00:00 +26°C° 0 mm 4 mps 752 mmHg 85%
    01:00 +26°C° 0 mm 4 mps 752 mmHg 85%
    02:00 +26°C° 0 mm 4 mps 752 mmHg 85%
    03:00 +26°C° 0 mm 4 mps 752 mmHg 85%
    04:00 +26°C° 0 mm 4 mps 751 mmHg 85%
    05:00 +27°C° 0 mm 4 mps 752 mmHg 82%
    06:00 +27°C° 0 mm 4 mps 752 mmHg 78%
    07:00 +28°C° 0 mm 5 mps 753 mmHg 75%
    08:00 +29°C° 0 mm 5 mps 753 mmHg 68%
    09:00 +30°C° 0 mm 5 mps 752 mmHg 62%
    10:00 +33°C° 0 mm 5 mps 752 mmHg 55%
    11:00 +34°C° 0 mm 5 mps 752 mmHg 52%
    12:00 +34°C° 0 mm 5 mps 751 mmHg 48%
    13:00 +35°C° 0 mm 5 mps 751 mmHg 45%
    14:00 +35°C° 0 mm 5 mps 750 mmHg 47%
    15:00 +34°C° 0 mm 5 mps 750 mmHg 49%
    16:00 +33°C° 0 mm 5 mps 749 mmHg 51%
    17:00 +32°C° 0 mm 5 mps 750 mmHg 60%
    18:00 +29°C° 0 mm 4 mps 750 mmHg 68%
    19:00 +27°C° 0 mm 4 mps 750 mmHg 77%
    20:00 +27°C° 0 mm 4 mps 751 mmHg 78%
    21:00 +27°C° 0 mm 4 mps 751 mmHg 80%
    22:00 +27°C° 0 mm 4 mps 752 mmHg 81%
    23:00 +27°C° 0 mm 4 mps 751 mmHg 82%

    Day after tomorrow, 22 November, Thursday

    Time Temperature Precipitation Wind Pressure Humidity
    00:00 +27°C° 0 mm 4 mps 751 mmHg 83%
    01:00 +26°C° 0 mm 4 mps 750 mmHg 85%
    02:00 +26°C° 0 mm 4 mps 750 mmHg 85%
    03:00 +26°C° 0 mm 4 mps 750 mmHg 86%
    04:00 +26°C° 0 mm 4 mps 750 mmHg 87%
    05:00 +27°C° 0 mm 4 mps 751 mmHg 83%
    06:00 +28°C° 0 mm 4 mps 751 mmHg 79%
    07:00 +29°C° 0 mm 4 mps 752 mmHg 75%
    08:00 +32°C° 0 mm 4 mps 752 mmHg 67%
    09:00 +34°C° 0 mm 4 mps 752 mmHg 58%
    10:00 +36°C° 0 mm 4 mps 752 mmHg 50%
    11:00 +36°C° 0.1 mm 5 mps 751 mmHg 49%
    12:00 +37°C° 0.1 mm 5 mps 751 mmHg 49%
    13:00 +37°C° 0.1 mm 5 mps 750 mmHg 48%
    14:00 +36°C° 0.3 mm 5 mps 750 mmHg 52%
    15:00 +35°C° 0.3 mm 5 mps 749 mmHg 57%
    16:00 +34°C° 0.3 mm 5 mps 749 mmHg 61%
    17:00 +33°C° 1 mm 5 mps 749 mmHg 68%
    18:00 +32°C° 1 mm 4 mps 750 mmHg 76%
    19:00 +29°C° 1 mm 4 mps 750 mmHg 83%
    20:00 +29°C° 1.7 mm 4 mps 750 mmHg 85%
    21:00 +29°C° 1.7 mm 3 mps 751 mmHg 86%
    22:00 +28°C° 1.7 mm 3 mps 751 mmHg 88%
    23:00 +28°C° 2.3 mm 3 mps 751 mmHg 89%

    23 November, Friday

    Time Temperature Precipitation Wind Pressure Humidity
    00:00 +28°C° 2.3 mm 3 mps 751 mmHg 89%
    01:00 +28°C° 2.3 mm 3 mps 750 mmHg 90%
    02:00 +28°C° 0.8 mm 3 mps 750 mmHg 89%
    03:00 +28°C° 0.8 mm 3 mps 750 mmHg 88%
    04:00 +28°C° 0.8 mm 3 mps 750 mmHg 88%
    05:00 +28°C° 1 mm 2 mps 751 mmHg 85%
    06:00 +29°C° 1 mm 2 mps 751 mmHg 82%
    07:00 +30°C° 1 mm 2 mps 752 mmHg 79%
    08:00 +31°C° 2.6 mm 2 mps 752 mmHg 74%
    09:00 +32°C° 2.6 mm 2 mps 752 mmHg 69%
    10:00 +35°C° 2.6 mm 3 mps 752 mmHg 63%
    11:00 +35°C° 1.1 mm 3 mps 752 mmHg 60%
    12:00 +36°C° 1.1 mm 3 mps 751 mmHg 57%
    13:00 +37°C° 1.1 mm 3 mps 751 mmHg 54%
    14:00 +37°C° 0.4 mm 3 mps 750 mmHg 54%
    15:00 +36°C° 0.4 mm 3 mps 750 mmHg 54%
    16:00 +36°C° 0.4 mm 3 mps 749 mmHg 54%
    17:00 +34°C° 0.3 mm 4 mps 750 mmHg 63%
    18:00 +32°C° 0.3 mm 4 mps 750 mmHg 72%
    19:00 +30°C° 0.3 mm 4 mps 750 mmHg 82%
    20:00 +29°C° 0 mm 3 mps 751 mmHg 85%
    21:00 +29°C° 0 mm 3 mps 751 mmHg 88%
    22:00 +28°C° 0 mm 3 mps 752 mmHg 91%
    23:00 +28°C° 0 mm 3 mps 751 mmHg 91%

    24 November, Saturday

    Time Temperature Precipitation Wind Pressure Humidity
    00:00 +28°C° 0 mm 3 mps 751 mmHg 90%
    01:00 +27°C° 0 mm 2 mps 751 mmHg 90%
    02:00 +27°C° 0 mm 2 mps 751 mmHg 90%
    03:00 +27°C° 0 mm 2 mps 751 mmHg 90%
    04:00 +27°C° 0 mm 2 mps 751 mmHg 89%
    05:00 +28°C° 0 mm 2 mps 751 mmHg 84%
    06:00 +29°C° 0 mm 1 mps 752 mmHg 79%
    07:00 +30°C° 0 mm 1 mps 752 mmHg 74%
    08:00 +32°C° 0 mm 1 mps 752 mmHg 58%
    09:00 +35°C° 0 mm 1 mps 752 mmHg 41%
    10:00 +37°C° 0 mm 1 mps 752 mmHg 25%
    11:00 +39°C° 0 mm 2 mps 752 mmHg 23%
    12:00 +40°C° 0 mm 2 mps 751 mmHg 22%
    13:00 +42°C° 0 mm 3 mps 750 mmHg 21%
    14:00 +42°C° 0 mm 3 mps 750 mmHg 22%
    15:00 +41°C° 0 mm 4 mps 749 mmHg 23%
    16:00 +41°C° 0 mm 4 mps 749 mmHg 24%
    17:00 +37°C° 0 mm 4 mps 749 mmHg 37%
    18:00 +34°C° 0 mm 4 mps 749 mmHg 50%
    19:00 +32°C° 0 mm 4 mps 750 mmHg 64%
    20:00 +30°C° 0 mm 4 mps 750 mmHg 72%
    21:00 +29°C° 0 mm 4 mps 750 mmHg 80%
    22:00 +29°C° 0 mm 4 mps 751 mmHg 88%
    23:00 +28°C° 0 mm 4 mps 751 mmHg 88%

    25 November, Sunday

    Time Temperature Precipitation Wind Pressure Humidity
    00:00 +28°C° 0 mm 4 mps 750 mmHg 88%
    01:00 +28°C° 0 mm 4 mps 750 mmHg 89%
    02:00 +28°C° 0 mm 3 mps 750 mmHg 90%
    03:00 +27°C° 0 mm 3 mps 750 mmHg 90%
    04:00 +27°C° 0 mm 2 mps 750 mmHg 91%
    05:00 +28°C° 0 mm 3 mps 750 mmHg 86%
    06:00 +29°C° 0 mm 3 mps 751 mmHg 81%
    07:00 +30°C° 0 mm 3 mps 752 mmHg 77%
    08:00 +33°C° 0 mm 3 mps 751 mmHg 67%
    09:00 +35°C° 0 mm 4 mps 751 mmHg 58%
    10:00 +37°C° 0 mm 4 mps 751 mmHg 49%
    11:00 +40°C° 0 mm 5 mps 750 mmHg 44%
    12:00 +41°C° 0 mm 5 mps 749 mmHg 39%
    13:00 +42°C° 0 mm 5 mps 748 mmHg 33%
    14:00 +41°C° 0 mm 5 mps 747 mmHg 36%
    15:00 +41°C° 0 mm 5 mps 747 mmHg 39%
    16:00 +40°C° 0 mm 6 mps 746 mmHg 42%
    17:00 +36°C° 0 mm 5 mps 747 mmHg 57%
    18:00 +34°C° 0 mm 5 mps 747 mmHg 72%
    19:00 +30°C° 0 mm 5 mps 748 mmHg 87%
    20:00 +30°C° 0 mm 5 mps 748 mmHg 84%
    21:00 +30°C° 0 mm 4 mps 748 mmHg 82%
    22:00 +30°C° 0 mm 4 mps 749 mmHg 80%
    23:00 +30°C° 0 mm 4 mps 748 mmHg 81%
    Show more